Tracking 27188 objects as of 1-Apr-2023
HD Live streaming from Space Station
objects crossing your sky now

STARLINK-5574

Track STARLINK-5574 now!
10-day predictions
STARLINK-5574 is classified as:


NORAD ID: 55362
Int'l Code: 2023-013AH
Perigee: 361.3 km
Apogee: 363.0 km
Inclination: 43.0 °
Period: 91.6 minutes
Semi major axis: 6733 km
RCS: Unknown
Launch date: January 26, 2023
Source: United States (US)
Launch site: AIR FORCE EASTERN TEST RANGE (AFETR)
Your satellite tracking list
Your tracking list is empty




NASA's NSSDC Master Catalog

Two Line Element Set (TLE):
1 55362U 23013AH  23091.08982839  .00000797  00000-0  95204-5 0  9990
2 55362  43.0019  12.8632 0001286 264.2760  95.7961 15.71363067 10654
Source of the keplerian elements: AFSPC